OK1VCF-8 Weather Reports


time (UTC)temp
C
wind
direction
speed
KPH
gust
KPH
rain 1hr
cm
rain 24hr
cm
rain mn
cm
humidity
%
barometer
mb
20260507224351 10 0 0.0 0.0 0.00 0.00 0.00 86 1017.7
20260507223634 9 0 0.0 0.0 0.00 0.00 0.00 87 1017.6
20260507222917 9 0 0.0 0.0 0.00 0.00 0.00 88 1017.5
20260507222159 8 0 0.0 0.0 0.00 0.00 0.00 90 1017.4
20260507221442 8 0 0.0 0.0 0.00 0.00 0.00 90 1017.6
20260507220723 8 0 0.0 0.0 0.00 0.00 0.00 90 1017.6
20260507220006 8 0 0.0 0.0 0.00 0.00 0.00 91 1017.6
20260507215003 8 0 0.0 0.0 0.00 0.00 0.00 92 1017.5
20260507214245 8 0 0.0 0.0 0.00 0.00 0.00 92 1017.4
20260507213528 8 0 0.0 0.0 0.00 0.00 0.00 92 1017.4
20260507212812 8 0 0.0 0.0 0.00 0.00 0.00 92 1017.3
20260507212055 8 0 0.0 0.0 0.00 0.00 0.00 92 1017.1
20260507211335 8 0 0.0 0.0 0.00 0.00 0.00 92 1017.0
20260507210617 8 0 0.0 0.0 0.00 0.00 0.00 92 1017.0
20260507205859 9 0 0.0 0.0 0.00 0.00 0.00 92 1017.0
20260507205141 9 0 0.0 0.0 0.00 0.00 0.00 92 1016.9
20260507204423 9 0 0.0 0.0 0.00 0.00 0.00 92 1016.9
20260507203705 10 0 0.0 0.0 0.00 0.00 0.00 92 1016.8
20260507202947 10 0 0.0 0.0 0.00 0.00 0.00 92 1016.7
20260507202228 10 0 0.0 0.0 0.00 0.00 0.00 92 1016.8
20260507201508 10 0 0.0 0.0 0.00 0.00 0.00 92 1016.6
20260507200750 10 0 0.0 0.0 0.00 0.00 0.00 92 1016.5
20260507195747 10 0 0.0 0.0 0.00 0.00 0.00 91 1016.4
20260507193602 11 0 0.0 0.0 0.00 0.00 0.00 86 1016.0
20260507192844 11 0 0.0 0.0 0.00 0.00 0.00 86 1016.0
20260507192126 12 0 0.0 0.0 0.00 0.00 0.00 86 1015.9
20260507191407 12 0 0.0 0.0 0.00 0.00 0.00 84 1015.8
20260507190649 12 0 0.0 0.0 0.00 0.00 0.00 84 1015.6
20260507185928 12 0 0.0 0.0 0.00 0.00 0.00 82 1015.5
20260507185208 12 0 0.0 0.0 0.00 0.00 0.00 82 1015.2
20260507184448 12 0 0.0 0.0 0.00 0.00 0.00 80 1015.2
20260507183728 12 0 0.0 0.0 0.00 0.00 0.00 79 1015.2
20260507181543 12 0 0.0 0.0 0.00 0.00 0.00 76 1014.9
20260507180540 12 0 0.0 0.0 0.00 0.00 0.00 76 1014.8
20260507175820 13 0 0.0 0.0 0.00 0.00 0.00 74 1014.8
20260507175103 13 0 0.0 0.0 0.00 0.00 0.00 74 1014.8
20260507174345 13 0 0.0 0.0 0.00 0.00 0.00 72 1014.6
20260507173626 13 0 0.0 0.0 0.00 0.00 0.00 70 1014.4
20260507172906 13 0 0.0 0.0 0.00 0.00 0.00 70 1014.4
20260507172147 14 0 0.0 0.0 0.00 0.00 0.00 70 1014.4
20260507171426 14 0 0.0 0.0 0.00 0.00 0.00 69 1014.4
20260507170709 15 0 0.0 0.0 0.00 0.00 0.00 66 1014.2
20260507165949 15 0 0.0 0.0 0.00 0.00 0.00 64 1014.2
20260507165229 15 0 0.0 0.0 0.00 0.00 0.00 66 1014.2
20260507164511 15 0 0.0 0.0 0.00 0.00 0.00 64 1014.2
20260507163750 15 0 0.0 0.0 0.00 0.00 0.00 62 1014.1
20260507163030 15 0 0.0 0.0 0.00 0.00 0.00 60 1014.0
20260507162310 15 0 0.0 0.0 0.00 0.00 0.00 60 1014.0
20260507161304 15 0 0.0 0.0 0.00 0.00 0.00 60 1013.8
20260507160545 16 0 0.0 0.0 0.00 0.00 0.00 59 1013.8
20260507155824 16 0 0.0 0.0 0.00 0.00 0.00 56 1013.9
20260507155105 16 0 0.0 0.0 0.00 0.00 0.00 56 1014.4
20260507154344 16 0 0.0 0.0 0.00 0.00 0.00 57 1013.8
20260507153623 16 0 0.0 0.0 0.00 0.00 0.00 55 1013.6
20260507152903 17 0 0.0 0.0 0.00 0.00 0.00 54 1013.6
20260507152144 20 0 0.0 0.0 0.00 0.00 0.00 47 1013.4
20260507151422 20 0 0.0 0.0 0.00 0.00 0.00 49 1013.4
20260507150704 17 0 0.0 0.0 0.00 0.00 0.00 55 1013.4
20260507145943 18 0 0.0 0.0 0.00 0.00 0.00 54 1013.2
20260507145221 19 0 0.0 0.0 0.00 0.00 0.00 50 1013.0
20260507144501 19 0 0.0 0.0 0.00 0.00 0.00 50 1013.1
20260507143742 21 0 0.0 0.0 0.00 0.00 0.00 48 1013.0
20260507143022 18 0 0.0 0.0 0.00 0.00 0.00 51 1013.0
20260507142018 20 0 0.0 0.0 0.00 0.00 0.00 49 1013.0
20260507141257 20 0 0.0 0.0 0.00 0.00 0.00 46 1013.1
20260507140539 21 0 0.0 0.0 0.00 0.00 0.00 47 1013.0
20260507135818 19 0 0.0 0.0 0.00 0.00 0.00 49 1013.0
20260507135059 20 0 0.0 0.0 0.00 0.00 0.00 48 1013.4
20260507134339 19 0 0.0 0.0 0.00 0.00 0.00 50 1013.2
20260507133617 18 0 0.0 0.0 0.00 0.00 0.00 51 1013.2
20260507132857 18 0 0.0 0.0 0.00 0.00 0.00 50 1013.2
20260507132131 18 0 0.0 0.0 0.00 0.00 0.00 49 1013.1
20260507131410 20 0 0.0 0.0 0.00 0.00 0.00 48 1013.2
20260507130647 20 0 0.0 0.0 0.00 0.00 0.00 49 1013.2
20260507125907 18 0 0.0 0.0 0.00 0.00 0.00 51 1013.2
20260507125101 17 0 0.0 0.0 0.00 0.00 0.00 52 1013.6
20260507124249 18 0 0.0 0.0 0.00 0.00 0.00 50 1013.0
20260507121745 18 0 0.0 0.0 0.00 0.00 0.00 51 1013.1
20260507120919 18 0 0.0 0.0 0.00 0.00 0.00 51 1013.0
20260507120100 18 0 0.0 0.0 0.00 0.00 0.00 52 1013.0
20260507115243 17 0 0.0 0.0 0.00 0.00 0.00 55 1013.0
20260507114438 17 0 0.0 0.0 0.00 0.00 0.00 56 1013.0
20260507113649 17 0 0.0 0.0 0.00 0.00 0.00 54 1013.0
20260507112912 17 0 0.0 0.0 0.00 0.00 0.00 53 1013.0
20260507112142 18 0 0.0 0.0 0.00 0.00 0.00 50 1012.8
20260507111421 19 0 0.0 0.0 0.00 0.00 0.00 50 1012.8
20260507110701 18 0 0.0 0.0 0.00 0.00 0.00 50 1012.9
20260507105939 18 0 0.0 0.0 0.00 0.00 0.00 52 1012.8
20260507105218 18 0 0.0 0.0 0.00 0.00 0.00 52 1012.8
20260507104458 18 0 0.0 0.0 0.00 0.00 0.00 50 1012.8
20260507103740 20 0 0.0 0.0 0.00 0.00 0.00 51 1012.6